Location: Caltech
(34.1382°N, 118.1253°W)
Time: 13:03:39
(UTC-07:00)

A-11 Canister half - All Passes

Search period start: 29 June 2016 00:00
Search period end: 09 July 2016 00:00
Orbit: 1517 x 1683 km, 47.2° (Epoch: 28 June)

Date Brightness Start Highest point End Pass type
(mag) Time Alt. Az. Time Alt. Az. Time Alt. Az.
29 Jun - 00:18:08 10° NW 00:27:31 53° NNE 00:36:36 10° E visible
29 Jun - 02:23:23 10° WNW 02:32:41 62° SW 02:41:44 10° SE visible
29 Jun - 04:32:12 10° W 04:36:09 13° WSW 04:40:06 10° SSW visible
29 Jun - 15:39:20 10° SE 15:42:13 11° ESE 15:45:06 10° ESE daylight
29 Jun - 17:36:04 10° SSW 17:45:49 55° SE 17:55:21 10° ENE daylight
29 Jun - 19:41:00 10° WSW 19:50:54 59° NNW 20:00:31 10° NE daylight
29 Jun - 21:48:39 10° WNW 21:57:38 38° N 22:06:22 10° ENE visible
29 Jun - 23:55:11 10° NW 00:04:33 51° NNE 00:13:35 10° E visible
30 Jun - 02:00:26 10° WNW 02:09:49 66° SW 02:18:56 10° SE visible
30 Jun - 04:08:38 10° W 04:13:22 15° WSW 04:18:04 10° SSW visible
30 Jun - 17:13:15 10° SSW 17:22:55 52° SE 17:32:23 10° ENE daylight
30 Jun - 19:17:57 10° WSW 19:27:55 62° NNW 19:37:36 10° NE daylight
30 Jun - 21:25:33 10° WNW 21:34:36 38° N 21:43:22 10° ENE visible
30 Jun - 23:32:12 10° NW 23:41:34 49° NNE 23:50:36 10° E visible
01 Jul - 01:37:28 10° WNW 01:46:56 71° SW 01:56:08 10° SE visible
01 Jul - 03:45:11 10° W 03:50:33 17° WSW 03:55:53 10° SSW visible
01 Jul - 16:50:29 10° SSW 17:00:02 48° SE 17:09:24 10° ENE daylight
01 Jul - 18:54:56 10° WSW 19:04:56 64° NNW 19:14:41 10° NE daylight
01 Jul - 21:02:28 10° WNW 21:11:33 38° N 21:20:22 10° ENE visible
01 Jul - 23:09:14 10° NW 23:18:34 48° NNE 23:27:35 10° E visible
02 Jul - 01:14:31 10° WNW 01:24:04 75° SW 01:33:19 10° SE visible
02 Jul - 03:21:51 10° W 03:27:45 19° SW 03:33:36 10° SSW visible
02 Jul - 16:27:43 10° SSW 16:37:09 45° SE 16:46:25 10° ENE daylight
02 Jul - 18:31:53 10° WSW 18:41:57 67° NNW 18:51:47 10° NE daylight
02 Jul - 20:39:22 10° WNW 20:48:30 39° N 20:57:23 10° ENE visible
02 Jul - 22:46:15 10° NW 22:55:35 46° NNE 23:04:34 10° E visible
03 Jul - 00:51:34 10° NW 01:01:10 79° SW 01:10:29 10° SE visible
03 Jul - 02:58:34 10° W 03:04:56 21° SW 03:11:15 10° SSW visible
03 Jul - 16:04:58 10° SSW 16:14:16 42° SE 16:23:24 10° ENE daylight
03 Jul - 18:08:52 10° WSW 18:18:59 70° NNW 18:28:52 10° NE daylight
03 Jul - 20:16:16 10° WNW 20:25:27 39° N 20:34:24 10° ENE visible
03 Jul - 22:23:15 10° NW 22:32:34 45° NNE 22:41:32 10° E visible
04 Jul - 00:28:37 10° NW 00:38:17 83° SW 00:47:37 10° SE visible
04 Jul - 02:35:21 10° WNW 02:42:09 23° SW 02:48:51 10° S visible
04 Jul - 15:42:16 10° SSW 15:51:23 39° SE 16:00:23 10° ENE daylight
04 Jul - 17:45:52 10° WSW 17:56:01 74° NNW 18:05:57 10° NE daylight
04 Jul - 19:53:09 10° WNW 20:02:25 40° N 20:11:26 10° ENE daylight
04 Jul - 22:00:16 10° NW 22:09:33 44° NNE 22:18:31 10° E visible
05 Jul - 00:05:40 10° NW 00:15:23 88° SW 00:24:45 10° SE visible
05 Jul - 02:12:10 10° WNW 02:19:20 25° SW 02:26:23 10° S visible
05 Jul - 15:19:34 10° SSW 15:28:30 37° SE 15:37:20 10° ENE daylight
05 Jul - 17:22:52 10° WSW 17:33:04 77° NNW 17:43:02 10° NE daylight
05 Jul - 19:30:03 10° W 19:39:23 41° N 19:48:27 10° ENE daylight
05 Jul - 21:37:15 10° NW 21:46:33 43° NNE 21:55:29 10° E visible
05 Jul - 23:42:43 10° NW 23:52:29 88° NE 00:01:53 10° SE visible
06 Jul - 01:49:01 10° WNW 01:56:30 27° SW 02:03:52 10° S visible
06 Jul - 14:56:54 10° S 15:05:38 34° SE 15:14:17 10° ENE daylight
06 Jul - 16:59:54 10° WSW 17:10:06 81° NW 17:20:07 10° NE daylight
06 Jul - 19:06:57 10° W 19:16:20 42° NNW 19:25:29 10° ENE daylight
06 Jul - 21:14:15 10° NW 21:23:31 42° NNE 21:32:28 10° E visible
06 Jul - 23:19:46 10° NW 23:29:35 84° NE 23:38:59 10° SE visible
07 Jul - 01:25:54 10° WNW 01:33:42 29° SW 01:41:20 10° S visible
07 Jul - 14:34:16 10° S 14:42:47 31° SE 14:51:12 10° ENE daylight
07 Jul - 16:36:55 10° SW 16:47:08 84° NW 16:57:12 10° NE daylight
07 Jul - 18:43:50 10° W 18:53:17 43° NNW 19:02:31 10° NE daylight
07 Jul - 20:51:13 10° WNW 21:00:29 41° NNE 21:09:25 10° E visible
07 Jul - 22:56:49 10° NW 23:06:39 80° NE 23:16:06 10° ESE visible
08 Jul - 01:02:48 10° WNW 01:10:52 32° SW 01:18:46 10° S visible
08 Jul - 14:11:40 10° S 14:19:54 29° SE 14:28:06 10° ENE daylight
08 Jul - 16:13:58 10° SW 16:24:11 88° NW 16:34:16 10° NE daylight
08 Jul - 18:20:44 10° W 18:30:15 44° NNW 18:39:33 10° NE daylight
08 Jul - 20:28:11 10° WNW 20:37:27 40° N 20:46:24 10° ENE visible
08 Jul - 22:33:51 10° NW 22:43:43 77° NE 22:53:10 10° ESE visible
